Regional Weather Roundup
Issued by NWS

Home | Current Version | Previous Version | Graphics & Text | Print | Product List | Glossary On
Versions: 1 2 3 4 5 6 7 8 9 10 11 12 13 14 15 16 17 18 19 20 21 22 23 24 25 26 27 28 29 30 31 32 33 34 35 36 37 38 39 40 41 42 43 44 45 46 47 48 49 50
000
ASUS43 KLMK 300110
RWRKY
KENTUCKY REGIONAL WEATHER ROUNDUP
NATIONAL WEATHER SERVICE LOUISVILLE KY
800 PM EST THU JAN 29 2015

NOTE "FAIR" INDICATES FEW OR NO CLOUDS BELOW 12,000 FEET
WITH NO SIGNIFICANT WEATHER AND/OR OBSTRUCTIONS TO VISIBILITY.

KYZ001>023-026-027-061>063-070>075-300200-
WESTERN AND SOUTH CENTRAL KENTUCKY

CITY           SKY/WX    TMP DP  RH WIND       PRES   REMARKS
PADUCAH        CLOUDY    42  31  64 NW9       30.31R
HENDERSON      CLOUDY    37  34  87 NW12      30.28R WCI  30
OWENSBORO      CLOUDY    39  33  79 NW14G23   30.26R WCI  31
HOPKINSVILLE   CLOUDY    41  32  70 NW9       30.27R
BOWLING GREEN  CLOUDY    41  30  65 NW9G20    30.25R
GLASGOW        CLOUDY    39  32  76 NW12G18   30.22R WCI  32
$$

KYZ024-025-028>034-038-045-046-053-300200-
NORTH CENTRAL KENTUCKY

CITY           SKY/WX    TMP DP  RH WIND       PRES   REMARKS
LOUISVILLE/SDF CLOUDY    38  30  73 NW15G21   30.19R WCI  29
LOUISVILLE/LOU CLOUDY    37  30  75 W18G26    30.19R WCI  27
FORT KNOX      CLOUDY    36  31  83 W13       30.18R WCI  27
$$

KYZ035>037-039>044-047>052-055>060-089>105-300200-
NORTHEAST KENTUCKY

CITY           SKY/WX    TMP DP  RH WIND       PRES   REMARKS
LEXINGTON      CLOUDY    36  31  82 NW13      30.14R WCI  27
COVINGTON      CLOUDY    34  31  88 NW16G22   30.11R FOG     WCI  24
FRANKFORT      CLOUDY    36  31  82 W10G20    30.14R WCI  28
$$

KYZ054-064>069-076>088-106>120-300200-
SOUTHEAST KENTUCKY

CITY           SKY/WX    TMP DP  RH WIND       PRES   REMARKS
JACKSON        CLOUDY    40  32  73 W10G24    30.07R WCI  33
LONDON         CLOUDY    42  31  64 NW18G24   30.11R
SOMERSET       CLOUDY    39  32  75 NW12G17   30.16R WCI  32
MIDDLESBORO    CLOUDY    48  40  72 NW9       30.08R
MONTICELLO     CLOUDY    40  34  79 NW14      30.20R WCI  32
$$



USA.gov is the U.S. government's official web portal to all federal, state and local government web resources and services.